�������l�o���
Date,Time,MP-1(��Sv/h),MP-2(��Sv/h),MP-3(��Sv/h),MP-4(��Sv/h),MP-5(��Sv/h),MP-6(��Sv/h),MP-7(��Sv/h),MP-8(��Sv/h),����,����(m/s),���J
2022/10/01,00:00,0.577,0.832,0.533,1.036,0.735,0.340,0.591,0.557,���쐼,0.9,��
2022/10/01,00:10,0.575,0.833,0.531,1.035,0.732,0.339,0.593,0.557,�쐼,0.9,��
2022/10/01,00:20,0.577,0.831,0.533,1.031,0.732,0.339,0.592,0.557,��,0.8,��
2022/10/01,00:30,0.576,0.834,0.532,1.032,0.733,0.339,0.592,0.557,���쐼,0.6,��
2022/10/01,00:40,0.576,0.834,0.532,1.034,0.731,0.338,0.592,0.557,��,0.9,��
2022/10/01,00:50,0.577,0.835,0.532,1.034,0.733,0.339,0.593,0.556,-,CALM,��
2022/10/01,01:00,0.575,0.832,0.532,1.035,0.732,0.338,0.592,0.556,�k��,0.8,��
2022/10/01,01:10,0.577,0.831,0.531,1.031,0.733,0.340,0.594,0.556,�k��,0.9,��
2022/10/01,01:20,0.576,0.832,0.531,1.034,0.731,0.341,0.592,0.558,�k��,1.4,��
2022/10/01,01:30,0.576,0.832,0.532,1.033,0.734,0.339,0.593,0.557,�k��,1.4,��
2022/10/01,01:40,0.575,0.832,0.533,1.034,0.734,0.339,0.591,0.556,�k��,1.2,��
2022/10/01,01:50,0.576,0.833,0.532,1.035,0.731,0.339,0.592,0.557,�k��,1.5,��
2022/10/01,02:00,0.577,0.832,0.533,1.034,0.733,0.338,0.592,0.558,�k��,1.2,��
2022/10/01,02:10,0.575,0.833,0.533,1.033,0.733,0.341,0.592,0.556,�k��,1.9,��
2022/10/01,02:20,0.575,0.831,0.532,1.032,0.733,0.340,0.593,0.556,�k��,1.7,��
2022/10/01,02:30,0.576,0.833,0.531,1.032,0.733,0.339,0.593,0.556,�k��,0.8,��
2022/10/01,02:40,0.576,0.830,0.532,1.033,0.734,0.339,0.593,0.556,�k�k��,1.1,��
2022/10/01,02:50,0.576,0.831,0.532,1.032,0.734,0.339,0.593,0.556,�k�k��,1.4,��
2022/10/01,03:00,0.575,0.832,0.532,1.033,0.733,0.339,0.593,0.556,�k�k��,1.2,��
2022/10/01,03:10,0.576,0.831,0.533,1.032,0.732,0.340,0.593,0.556,�k��,0.9,��
2022/10/01,03:20,0.576,0.831,0.532,1.033,0.733,0.338,0.594,0.557,-,CALM,��
2022/10/01,03:30,0.574,0.829,0.533,1.032,0.732,0.340,0.593,0.556,�k�k��,0.6,��
2022/10/01,03:40,0.576,0.832,0.531,1.032,0.733,0.339,0.592,0.558,�k,1.5,��
2022/10/01,03:50,0.576,0.830,0.533,1.035,0.732,0.340,0.592,0.557,�k,2.5,��
2022/10/01,04:00,0.577,0.832,0.531,1.032,0.731,0.338,0.592,0.558,�k�k��,2.9,��
2022/10/01,04:10,0.574,0.833,0.531,1.032,0.731,0.340,0.593,0.556,�k�k��,3.4,��
2022/10/01,04:20,0.577,0.832,0.532,1.032,0.731,0.339,0.593,0.557,�k�k��,3.2,��
2022/10/01,04:30,0.576,0.833,0.533,1.035,0.732,0.338,0.592,0.557,�k�k��,3.8,��
2022/10/01,04:40,0.575,0.832,0.532,1.035,0.734,0.338,0.593,0.556,�k,3.4,��
2022/10/01,04:50,0.576,0.834,0.532,1.034,0.731,0.340,0.592,0.557,�k�k��,4.1,��
2022/10/01,05:00,0.576,0.833,0.531,1.033,0.732,0.339,0.593,0.556,�k�k��,3.7,��
2022/10/01,05:10,0.576,0.831,0.530,1.034,0.733,0.338,0.592,0.556,�k�k��,3.7,��
2022/10/01,05:20,0.575,0.831,0.530,1.033,0.733,0.340,0.592,0.557,�k�k��,4.5,��
2022/10/01,05:30,0.576,0.833,0.532,1.034,0.732,0.340,0.591,0.557,�k�k��,4.8,��
2022/10/01,05:40,0.575,0.831,0.534,1.033,0.734,0.341,0.591,0.556,�k�k��,5.1,��
2022/10/01,05:50,0.575,0.832,0.532,1.032,0.732,0.340,0.591,0.556,�k�k��,4.7,��
2022/10/01,06:00,0.577,0.831,0.532,1.032,0.732,0.339,0.593,0.557,�k�k��,4.6,��
2022/10/01,06:10,0.575,0.831,0.532,1.032,0.731,0.338,0.593,0.558,�k,4.9,��
2022/10/01,06:20,0.575,0.833,0.534,1.035,0.732,0.340,0.592,0.557,�k,4.7,��
2022/10/01,06:30,0.576,0.835,0.533,1.034,0.732,0.339,0.594,0.557,�k,3.9,��
2022/10/01,06:40,0.575,0.832,0.533,1.033,0.732,0.340,0.592,0.556,�k,4.2,��
2022/10/01,06:50,0.576,0.834,0.532,1.033,0.732,0.339,0.593,0.556,�k,3.7,��
2022/10/01,07:00,0.576,0.832,0.533,1.034,0.733,0.340,0.592,0.557,�k,5.0,��
2022/10/01,07:10,0.575,0.834,0.533,1.034,0.733,0.340,0.594,0.557,�k�k��,4.5,��
2022/10/01,07:20,0.578,0.833,0.533,1.034,0.732,0.341,0.594,0.558,�k�k��,4.6,��
2022/10/01,07:30,0.576,0.832,0.532,1.032,0.734,0.341,0.594,0.558,�k,4.6,��
2022/10/01,07:40,0.577,0.832,0.534,1.034,0.734,0.340,0.594,0.559,�k,4.6,��
2022/10/01,07:50,0.577,0.831,0.532,1.036,0.734,0.339,0.594,0.558,�k�k��,4.5,��
2022/10/01,08:00,0.575,0.833,0.530,1.033,0.732,0.339,0.593,0.558,�k,4.0,��
2022/10/01,08:10,0.577,0.832,0.533,1.033,0.731,0.340,0.592,0.558,�k,2.9,��
2022/10/01,08:20,0.576,0.832,0.533,1.034,0.734,0.340,0.592,0.559,�k�k��,3.9,��
2022/10/01,08:30,0.575,0.830,0.534,1.034,0.735,0.340,0.593,0.558,�k�k��,3.0,��
2022/10/01,08:40,0.578,0.832,0.534,1.033,0.734,0.339,0.592,0.559,�k,2.6,��
2022/10/01,08:50,0.576,0.832,0.534,1.034,0.735,0.340,0.591,0.558,�k,2.6,��
2022/10/01,09:00,0.577,0.833,0.533,1.032,0.733,0.339,0.591,0.557,�k,2.6,��
2022/10/01,09:10,0.577,0.832,0.534,1.034,0.733,0.341,0.591,0.556,�k,3.0,��
2022/10/01,09:20,0.576,0.833,0.535,1.036,0.732,0.340,0.593,0.555,�k,3.4,��
2022/10/01,09:30,0.578,0.834,0.535,1.035,0.732,0.340,0.592,0.558,�k,3.7,��
2022/10/01,09:40,0.576,0.833,0.533,1.034,0.734,0.339,0.592,0.554,�k,3.7,��
2022/10/01,09:50,0.577,0.832,0.532,1.036,0.733,0.339,0.589,0.557,�k,3.4,��
2022/10/01,10:00,0.579,0.833,0.534,1.035,0.733,0.338,0.591,0.555,�k,3.5,��
2022/10/01,10:10,0.578,0.833,0.534,1.037,0.733,0.339,0.592,0.556,�k,4.2,��
2022/10/01,10:20,0.578,0.834,0.534,1.036,0.734,0.340,0.591,0.556,�k�k��,3.8,��
2022/10/01,10:30,0.577,0.835,0.532,1.036,0.734,0.339,0.592,0.556,�k,4.8,��
2022/10/01,10:40,0.578,0.835,0.534,1.036,0.736,0.338,0.592,0.557,�k�k��,5.2,��
2022/10/01,10:50,0.579,0.834,0.533,1.034,0.735,0.339,0.593,0.557,�k�k��,5.5,��
2022/10/01,11:00,0.579,0.833,0.533,1.037,0.734,0.337,0.591,0.556,�k��,5.5,��
2022/10/01,11:10,0.577,0.835,0.533,1.037,0.736,0.338,0.592,0.557,�k�k��,5.5,��
2022/10/01,11:20,0.579,0.837,0.533,1.035,0.735,0.340,0.590,0.559,�k��,5.5,��
2022/10/01,11:30,0.579,0.836,0.533,1.035,0.737,0.339,0.591,0.558,�k��,5.0,��
2022/10/01,11:40,0.579,0.835,0.533,1.036,0.736,0.339,0.590,0.557,�k��,4.7,��
2022/10/01,11:50,0.579,0.835,0.533,1.036,0.736,0.339,0.590,0.557,�k��,4.9,��
2022/10/01,12:00,0.579,0.838,0.534,1.037,0.737,0.339,0.592,0.558,�k��,4.7,��
2022/10/01,12:10,0.577,0.836,0.532,1.037,0.736,0.338,0.592,0.558,�k�k��,4.7,��
2022/10/01,12:20,0.578,0.836,0.533,1.036,0.736,0.338,0.592,0.557,�k�k��,4.5,��
2022/10/01,12:30,0.579,0.836,0.534,1.037,0.738,0.338,0.592,0.557,�k�k��,4.3,��
2022/10/01,12:40,0.580,0.835,0.534,1.035,0.736,0.338,0.591,0.558,�k��,4.4,��
2022/10/01,12:50,0.580,0.838,0.533,1.036,0.736,0.339,0.592,0.557,�k�k��,3.9,��
2022/10/01,13:00,0.579,0.839,0.534,1.037,0.736,0.339,0.593,0.557,�k�k��,3.8,��
2022/10/01,13:10,0.578,0.838,0.533,1.035,0.736,0.339,0.592,0.558,�k�k��,4.0,��
2022/10/01,13:20,0.580,0.838,0.534,1.037,0.736,0.339,0.593,0.558,�k�k��,3.8,��
2022/10/01,13:30,0.578,0.837,0.535,1.038,0.739,0.339,0.593,0.558,�k�k��,3.4,��
2022/10/01,13:40,0.579,0.835,0.535,1.034,0.738,0.339,0.592,0.558,�k�k��,2.6,��
2022/10/01,13:50,0.578,0.838,0.534,1.036,0.736,0.339,0.593,0.559,�k,3.2,��
2022/10/01,14:00,0.578,0.838,0.534,1.036,0.735,0.340,0.593,0.558,�k�k��,3.0,��
2022/10/01,14:10,0.578,0.837,0.532,1.036,0.739,0.340,0.593,0.558,�k�k��,3.6,��
2022/10/01,14:20,0.577,0.841,0.534,1.036,0.737,0.339,0.592,0.558,�k�k��,2.3,��
2022/10/01,14:30,0.577,0.838,0.534,1.035,0.737,0.339,0.592,0.559,�k�k��,3.1,��
2022/10/01,14:40,0.578,0.836,0.534,1.035,0.736,0.340,0.593,0.559,�k�k��,3.3,��
2022/10/01,14:50,0.578,0.837,0.534,1.036,0.737,0.340,0.592,0.558,�k�k��,2.9,��
2022/10/01,15:00,0.578,0.837,0.535,1.037,0.738,0.340,0.592,0.559,�k��,2.5,��
2022/10/01,15:10,0.579,0.837,0.535,1.036,0.737,0.338,0.593,0.559,�k�k��,2.6,��
2022/10/01,15:20,0.577,0.838,0.535,1.036,0.737,0.337,0.593,0.560,�k�k��,2.5,��
2022/10/01,15:30,0.579,0.837,0.535,1.037,0.736,0.339,0.591,0.558,�k��,2.5,��
2022/10/01,15:40,0.579,0.839,0.533,1.036,0.737,0.338,0.594,0.558,�k��,2.3,��
2022/10/01,15:50,0.579,0.838,0.535,1.035,0.736,0.340,0.593,0.559,�k��,2.3,��
2022/10/01,16:00,0.578,0.836,0.533,1.036,0.738,0.339,0.592,0.558,�k�k��,2.3,��
2022/10/01,16:10,0.580,0.836,0.534,1.037,0.736,0.339,0.592,0.559,�k�k��,1.9,��
2022/10/01,16:20,0.579,0.837,0.532,1.036,0.737,0.339,0.591,0.558,�k,2.0,��
2022/10/01,16:30,0.580,0.837,0.535,1.035,0.736,0.339,0.591,0.558,�k,1.4,��
2022/10/01,16:40,0.577,0.837,0.533,1.035,0.738,0.339,0.591,0.557,�k�k��,1.2,��
2022/10/01,16:50,0.576,0.835,0.534,1.034,0.735,0.339,0.594,0.557,�k�k��,1.2,��
2022/10/01,17:00,0.578,0.839,0.535,1.033,0.736,0.341,0.595,0.559,�k�k��,1.2,��
2022/10/01,17:10,0.579,0.837,0.532,1.034,0.736,0.341,0.594,0.559,�k,0.9,��
2022/10/01,17:20,0.580,0.839,0.532,1.037,0.736,0.340,0.593,0.559,�k�k��,1.5,��
2022/10/01,17:30,0.580,0.837,0.535,1.035,0.738,0.341,0.594,0.560,�k�k��,1.9,��
2022/10/01,17:40,0.579,0.837,0.536,1.036,0.738,0.341,0.593,0.560,�k�k��,1.9,��
2022/10/01,17:50,0.581,0.841,0.536,1.036,0.740,0.339,0.593,0.561,�k�k��,1.7,��
2022/10/01,18:00,0.581,0.838,0.535,1.035,0.738,0.340,0.593,0.557,�k�k��,1.7,��
2022/10/01,18:10,0.581,0.839,0.536,1.035,0.738,0.340,0.593,0.560,�k,1.7,��
2022/10/01,18:20,0.579,0.840,0.536,1.035,0.740,0.340,0.592,0.560,�k,1.4,��
2022/10/01,18:30,0.580,0.838,0.537,1.037,0.738,0.340,0.594,0.560,�k,1.2,��
2022/10/01,18:40,0.580,0.836,0.535,1.035,0.738,0.341,0.593,0.561,�k�k��,1.4,��
2022/10/01,18:50,0.581,0.839,0.535,1.036,0.738,0.341,0.593,0.559,�k�k��,1.4,��
2022/10/01,19:00,0.579,0.839,0.535,1.037,0.739,0.341,0.592,0.557,�k�k��,0.9,��
2022/10/01,19:10,0.580,0.840,0.534,1.039,0.739,0.341,0.592,0.559,�k��,1.1,��
2022/10/01,19:20,0.580,0.837,0.535,1.036,0.738,0.341,0.594,0.560,�k��,1.2,��
2022/10/01,19:30,0.580,0.838,0.535,1.037,0.738,0.340,0.594,0.559,�k,0.9,��
2022/10/01,19:40,0.578,0.836,0.534,1.037,0.738,0.341,0.593,0.558,-,CALM,��
2022/10/01,19:50,0.579,0.836,0.534,1.036,0.737,0.339,0.593,0.558,�k�k��,0.8,��
2022/10/01,20:00,0.579,0.839,0.535,1.037,0.738,0.340,0.594,0.559,�k��,1.1,��
2022/10/01,20:10,0.580,0.838,0.534,1.037,0.738,0.341,0.593,0.558,�k�k��,0.9,��
2022/10/01,20:20,0.580,0.837,0.533,1.037,0.739,0.341,0.594,0.559,�k�k��,0.8,��
2022/10/01,20:30,0.580,0.836,0.534,1.035,0.739,0.340,0.592,0.559,�k�k��,1.4,��
2022/10/01,20:40,0.577,0.836,0.533,1.036,0.738,0.341,0.592,0.559,�k��,2.0,��
2022/10/01,20:50,0.580,0.837,0.536,1.037,0.740,0.340,0.592,0.559,�k�k��,1.7,��
2022/10/01,21:00,0.579,0.837,0.534,1.036,0.738,0.340,0.592,0.559,�k�k��,2.2,��
2022/10/01,21:10,0.579,0.836,0.534,1.036,0.739,0.340,0.593,0.558,�k�k��,1.9,��
2022/10/01,21:20,0.578,0.837,0.534,1.038,0.739,0.340,0.592,0.557,�k��,3.0,��
2022/10/01,21:30,0.579,0.837,0.535,1.036,0.738,0.341,0.592,0.558,�k��,2.9,��
2022/10/01,21:40,0.579,0.837,0.534,1.036,0.738,0.341,0.594,0.559,�k��,2.9,��
2022/10/01,21:50,0.577,0.836,0.534,1.037,0.738,0.339,0.593,0.558,�k��,2.0,��
2022/10/01,22:00,0.580,0.838,0.533,1.036,0.737,0.339,0.594,0.558,�k��,2.9,��
2022/10/01,22:10,0.580,0.834,0.535,1.038,0.737,0.341,0.593,0.557,�k��,3.1,��
2022/10/01,22:20,0.577,0.837,0.535,1.036,0.738,0.339,0.592,0.558,�k��,2.6,��
2022/10/01,22:30,0.577,0.837,0.534,1.036,0.738,0.341,0.593,0.559,�k��,2.5,��
2022/10/01,22:40,0.579,0.836,0.533,1.037,0.737,0.340,0.594,0.559,�k�k��,2.6,��
2022/10/01,22:50,0.578,0.837,0.535,1.036,0.739,0.341,0.593,0.556,�k�k��,2.9,��
2022/10/01,23:00,0.579,0.834,0.534,1.038,0.737,0.340,0.594,0.557,�k��,3.2,��
2022/10/01,23:10,0.577,0.835,0.533,1.035,0.737,0.340,0.594,0.558,�k��,3.2,��
2022/10/01,23:20,0.579,0.835,0.534,1.036,0.737,0.340,0.593,0.558,�k��,2.8,��
2022/10/01,23:30,0.579,0.833,0.534,1.039,0.739,0.340,0.594,0.558,�k��,2.3,��
2022/10/01,23:40,0.578,0.836,0.534,1.037,0.737,0.339,0.596,0.557,�k�k��,2.6,��
2022/10/01,23:50,0.578,0.835,0.534,1.036,0.736,0.340,0.593,0.558,�k��,3.4,��
